Time,TemperatureF,DewpointF,PressureIn,WindDirection,WindDirectionDegrees,WindSpeedMPH,WindSpeedGustMPH,Humidity,HourlyPrecipIn,Conditions,Clouds,dailyrainin,SoftwareType,DateUTC
2013-04-06 00:04:00,41.8,33.1,29.79,SSW,210,6.0,7.0,71,0.00,,---,0.00,VWS V14.00,2013-04-06 07:04:00,
2013-04-06 00:10:00,41.8,33.1,29.79,South,175,3.0,7.0,71,0.00,,---,0.00,VWS V14.00,2013-04-06 07:10:00,
2013-04-06 00:15:00,41.8,32.8,29.78,ESE,123,3.0,7.0,70,0.00,,---,0.00,VWS V14.00,2013-04-06 07:15:00,
2013-04-06 00:20:00,41.6,33.3,29.78,South,189,8.0,12.0,72,0.00,,---,0.00,VWS V14.00,2013-04-06 07:20:00,
2013-04-06 00:25:00,41.5,32.8,29.78,South,191,6.0,10.0,71,0.00,,---,0.00,VWS V14.00,2013-04-06 07:25:00,
2013-04-06 00:30:00,41.5,32.8,29.78,South,189,1.0,10.0,71,0.00,,---,0.00,VWS V14.00,2013-04-06 07:30:00,
2013-04-06 00:35:00,41.3,32.6,29.78,SSW,195,1.0,7.0,71,0.00,,---,0.00,VWS V14.00,2013-04-06 07:35:00,
2013-04-06 00:40:00,41.5,32.5,29.78,SSW,193,6.0,12.0,70,0.00,,---,0.00,VWS V14.00,2013-04-06 07:40:00,
2013-04-06 00:45:00,41.5,32.5,29.77,SSW,193,2.0,11.0,70,0.00,,---,0.00,VWS V14.00,2013-04-06 07:45:00,
2013-04-06 00:50:00,41.5,32.5,29.77,SSE,168,2.0,11.0,70,0.00,,---,0.00,VWS V14.00,2013-04-06 07:50:00,
2013-04-06 00:56:00,41.5,32.8,29.77,SSW,213,1.0,11.0,71,0.00,,---,0.00,VWS V14.00,2013-04-06 07:56:00,
2013-04-06 01:01:00,41.3,32.3,29.77,South,175,2.0,11.0,70,0.00,,---,0.00,VWS V14.00,2013-04-06 08:01:00,
2013-04-06 01:06:00,41.2,32.5,29.77,SSW,196,3.0,7.0,71,0.00,,---,0.00,VWS V14.00,2013-04-06 08:06:00,
2013-04-06 01:11:00,41.1,32.4,29.77,NW,309,3.0,3.0,71,0.00,,---,0.00,VWS V14.00,2013-04-06 08:11:00,
2013-04-06 01:17:00,40.8,32.5,29.76,South,172,7.0,10.0,72,0.00,,---,0.00,VWS V14.00,2013-04-06 08:17:00,
2013-04-06 01:22:00,40.6,32.0,29.76,South,181,1.0,6.0,71,0.00,,---,0.00,VWS V14.00,2013-04-06 08:22:00,
2013-04-06 01:27:00,40.6,32.3,29.76,South,189,5.0,11.0,72,0.00,,---,0.00,VWS V14.00,2013-04-06 08:27:00,
2013-04-06 01:32:00,40.8,32.5,29.75,SSE,160,5.0,11.0,72,0.00,,---,0.00,VWS V14.00,2013-04-06 08:32:00,
2013-04-06 01:38:00,40.6,32.3,29.75,South,185,7.0,12.0,72,0.00,,---,0.00,VWS V14.00,2013-04-06 08:38:00,
2013-04-06 01:43:00,40.6,32.0,29.75,SSW,192,12.0,16.0,71,0.00,,---,0.00,VWS V14.00,2013-04-06 08:43:00,
2013-04-06 01:48:00,40.8,32.5,29.74,SSW,193,5.0,18.0,72,0.00,,---,0.00,VWS V14.00,2013-04-06 08:48:00,
2013-04-06 01:53:00,40.9,32.2,29.74,SSW,200,9.0,16.0,71,0.00,,---,0.00,VWS V14.00,2013-04-06 08:53:00,
2013-04-06 01:59:00,40.8,32.5,29.74,SSW,208,8.0,16.0,72,0.00,,---,0.00,VWS V14.00,2013-04-06 08:59:00,
2013-04-06 02:04:00,40.9,32.9,29.74,SSW,203,10.0,13.0,73,0.00,,---,0.00,VWS V14.00,2013-04-06 09:04:00,
2013-04-06 02:09:00,40.9,32.9,29.74,SSW,208,7.0,14.0,73,0.00,,---,0.00,VWS V14.00,2013-04-06 09:09:00,
2013-04-06 02:15:00,40.9,32.9,29.74,South,189,8.0,11.0,73,0.00,,---,0.00,VWS V14.00,2013-04-06 09:15:00,
2013-04-06 02:20:00,40.9,32.9,29.75,South,172,0.0,12.0,73,0.00,,---,0.00,VWS V14.00,2013-04-06 09:20:00,
2013-04-06 02:25:00,40.9,33.3,29.75,South,186,2.0,12.0,74,0.00,,---,0.00,VWS V14.00,2013-04-06 09:25:00,
2013-04-06 02:30:00,41.1,33.1,29.75,South,179,3.0,12.0,73,0.00,,---,0.00,VWS V14.00,2013-04-06 09:30:00,
2013-04-06 02:35:00,41.1,33.1,29.75,South,182,6.0,10.0,73,0.00,,---,0.00,VWS V14.00,2013-04-06 09:35:00,
2013-04-06 02:41:00,41.1,33.5,29.75,SSW,210,1.0,10.0,74,0.00,,---,0.00,VWS V14.00,2013-04-06 09:41:00,
2013-04-06 02:46:00,41.1,33.5,29.76,SSW,200,5.0,11.0,74,0.00,,---,0.00,VWS V14.00,2013-04-06 09:46:00,
2013-04-06 02:51:00,41.1,33.1,29.76,South,189,5.0,11.0,73,0.00,,---,0.00,VWS V14.00,2013-04-06 09:51:00,
2013-04-06 02:56:00,41.1,33.5,29.76,South,185,7.0,14.0,74,0.00,,---,0.00,VWS V14.00,2013-04-06 09:56:00,
2013-04-06 03:01:00,40.9,33.3,29.76,South,184,1.0,14.0,74,0.00,,---,0.00,VWS V14.00,2013-04-06 10:01:00,
2013-04-06 03:06:00,40.8,33.5,29.76,South,185,7.0,10.0,75,0.00,,---,0.01,VWS V14.00,2013-04-06 10:06:00,
2013-04-06 03:12:00,40.8,33.5,29.76,South,174,7.0,10.0,75,0.00,,---,0.01,VWS V14.00,2013-04-06 10:12:00,
2013-04-06 03:17:00,40.8,33.2,29.77,SSW,195,2.0,16.0,74,0.00,,---,0.01,VWS V14.00,2013-04-06 10:17:00,
2013-04-06 03:22:00,40.8,33.8,29.77,South,191,5.0,7.0,76,0.00,,---,0.01,VWS V14.00,2013-04-06 10:22:00,
2013-04-06 03:27:00,40.8,33.8,29.77,SSW,192,7.0,12.0,76,0.00,,---,0.01,VWS V14.00,2013-04-06 10:27:00,
2013-04-06 03:32:00,40.8,33.5,29.77,South,191,14.0,14.0,75,0.00,,---,0.01,VWS V14.00,2013-04-06 10:32:00,
2013-04-06 03:38:00,40.8,34.2,29.77,South,191,6.0,14.0,77,0.00,,---,0.01,VWS V14.00,2013-04-06 10:38:00,
2013-04-06 03:43:00,40.6,34.0,29.77,South,191,5.0,6.0,77,0.00,,---,0.01,VWS V14.00,2013-04-06 10:43:00,
2013-04-06 03:48:00,40.5,34.2,29.77,SSW,195,7.0,8.0,78,0.00,,---,0.01,VWS V14.00,2013-04-06 10:48:00,
2013-04-06 03:53:00,40.5,34.2,29.77,SSW,195,4.0,10.0,78,0.00,,---,0.01,VWS V14.00,2013-04-06 10:53:00,
2013-04-06 03:58:00,40.5,33.9,29.77,South,191,6.0,13.0,77,0.00,,---,0.01,VWS V14.00,2013-04-06 10:58:00,
2013-04-06 04:03:00,40.3,34.3,29.78,SSW,212,10.0,11.0,79,0.00,,---,0.01,VWS V14.00,2013-04-06 11:03:00,
2013-04-06 04:08:00,40.3,33.3,29.78,South,189,6.0,11.0,76,0.00,,---,0.01,VWS V14.00,2013-04-06 11:08:00,
2013-04-06 04:13:00,40.5,33.2,29.78,SSW,200,11.0,17.0,75,0.00,,---,0.01,VWS V14.00,2013-04-06 11:13:00,
2013-04-06 04:20:00,40.6,33.0,29.80,South,186,12.0,21.0,74,0.00,,---,0.01,VWS V14.00,2013-04-06 11:20:00,
2013-04-06 04:25:00,40.6,33.6,29.80,South,191,5.0,14.0,76,0.00,,---,0.01,VWS V14.00,2013-04-06 11:25:00,
2013-04-06 04:30:00,40.3,32.7,29.80,SSW,195,5.0,14.0,74,0.00,,---,0.01,VWS V14.00,2013-04-06 11:30:00,
2013-04-06 04:33:00,40.3,32.7,29.80,SSW,205,6.0,11.0,74,0.00,,---,0.01,VWS V14.00,2013-04-06 11:33:00,
2013-04-06 04:38:00,40.3,32.7,29.80,SSW,198,2.0,12.0,74,0.00,,---,0.01,VWS V14.00,2013-04-06 11:38:00,
2013-04-06 04:43:00,40.3,32.7,29.80,SSW,195,3.0,10.0,74,0.00,,---,0.01,VWS V14.00,2013-04-06 11:43:00,
2013-04-06 04:49:00,40.3,32.3,29.80,SW,215,6.0,12.0,73,0.00,,---,0.01,VWS V14.00,2013-04-06 11:49:00,
2013-04-06 04:54:00,40.2,32.2,29.80,South,184,2.0,10.0,73,0.00,,---,0.01,VWS V14.00,2013-04-06 11:54:00,
2013-04-06 04:59:00,40.1,32.2,29.80,South,179,6.0,11.0,73,0.00,,---,0.01,VWS V14.00,2013-04-06 11:59:00,
2013-04-06 05:04:00,39.9,32.0,29.81,SSW,198,7.0,8.0,73,0.00,,---,0.01,VWS V14.00,2013-04-06 12:04:00,
2013-04-06 05:09:00,39.9,32.0,29.81,South,179,6.0,10.0,73,0.00,,---,0.01,VWS V14.00,2013-04-06 12:09:00,
2013-04-06 05:14:00,39.8,31.9,29.81,South,179,5.0,7.0,73,0.00,,---,0.01,VWS V14.00,2013-04-06 12:14:00,
2013-04-06 05:19:00,39.6,31.7,29.81,SSW,202,2.0,7.0,73,0.00,,---,0.01,VWS V14.00,2013-04-06 12:19:00,
2013-04-06 05:25:00,39.6,31.7,29.81,SSW,192,4.0,12.0,73,0.00,,---,0.01,VWS V14.00,2013-04-06 12:25:00,
2013-04-06 05:30:00,39.6,31.3,29.81,South,189,2.0,12.0,72,0.00,,---,0.01,VWS V14.00,2013-04-06 12:30:00,
2013-04-06 05:35:00,39.5,31.6,29.81,South,186,6.0,7.0,73,0.00,,---,0.01,VWS V14.00,2013-04-06 12:35:00,
2013-04-06 05:40:00,39.6,30.6,29.81,SSW,205,4.0,10.0,70,0.00,,---,0.01,VWS V14.00,2013-04-06 12:40:00,
2013-04-06 05:45:00,39.6,30.6,29.81,South,191,3.0,9.0,70,0.00,,---,0.01,VWS V14.00,2013-04-06 12:45:00,
2013-04-06 05:50:00,39.6,30.3,29.81,South,191,4.0,9.0,69,0.00,,---,0.01,VWS V14.00,2013-04-06 12:50:00,
2013-04-06 05:55:00,39.6,29.9,29.81,SSW,192,4.0,6.0,68,0.00,,---,0.01,VWS V14.00,2013-04-06 12:55:00,
2013-04-06 06:00:00,39.8,30.5,29.81,SSW,192,3.0,10.0,69,0.00,,---,0.01,VWS V14.00,2013-04-06 13:00:00,
2013-04-06 06:05:00,39.8,30.5,29.81,SSW,192,2.0,7.0,69,0.00,,---,0.01,VWS V14.00,2013-04-06 13:05:00,
2013-04-06 06:11:00,39.6,29.9,29.81,SSW,192,1.0,7.0,68,0.00,,---,0.01,VWS V14.00,2013-04-06 13:11:00,
2013-04-06 06:16:00,39.6,30.6,29.83,SSW,192,5.0,5.0,70,0.00,,---,0.01,VWS V14.00,2013-04-06 13:16:00,
2013-04-06 06:21:00,39.3,30.4,29.83,SSW,208,2.0,10.0,70,0.00,,---,0.01,VWS V14.00,2013-04-06 13:21:00,
2013-04-06 06:26:00,39.1,30.2,29.83,SSW,193,6.0,9.0,70,0.00,,---,0.01,VWS V14.00,2013-04-06 13:26:00,
2013-04-06 06:31:00,38.9,30.3,29.83,SSW,193,7.0,9.0,71,0.00,,---,0.01,VWS V14.00,2013-04-06 13:31:00,
2013-04-06 06:37:00,38.9,30.7,29.83,South,182,5.0,14.0,72,0.00,,---,0.01,VWS V14.00,2013-04-06 13:37:00,
2013-04-06 06:42:00,38.8,30.6,29.83,South,185,1.0,6.0,72,0.00,,---,0.01,VWS V14.00,2013-04-06 13:42:00,
2013-04-06 06:47:00,38.6,30.0,29.84,South,184,7.0,7.0,71,0.00,,---,0.01,VWS V14.00,2013-04-06 13:47:00,
2013-04-06 06:52:00,38.8,30.6,29.84,SSW,202,7.0,9.0,72,0.00,,---,0.01,VWS V14.00,2013-04-06 13:52:00,
2013-04-06 06:57:00,38.8,30.6,29.84,South,189,0.0,9.0,72,0.00,,---,0.01,VWS V14.00,2013-04-06 13:57:00,
2013-04-06 07:02:00,38.5,30.6,29.84,South,189,3.0,3.0,73,0.00,,---,0.01,VWS V14.00,2013-04-06 14:02:00,
2013-04-06 07:07:00,38.5,30.3,29.84,South,186,7.0,7.0,72,0.00,,---,0.01,VWS V14.00,2013-04-06 14:07:00,
2013-04-06 07:12:00,38.6,30.0,29.84,SSW,192,2.0,7.0,71,0.00,,---,0.01,VWS V14.00,2013-04-06 14:12:00,
2013-04-06 07:18:00,38.9,29.6,29.86,South,186,7.0,11.0,69,0.00,,---,0.01,VWS V14.00,2013-04-06 14:18:00,
2013-04-06 07:23:00,39.3,29.6,29.86,South,178,6.0,10.0,68,0.00,,---,0.01,VWS V14.00,2013-04-06 14:23:00,
2013-04-06 07:28:00,39.5,30.2,29.86,South,169,7.0,12.0,69,0.00,,---,0.01,VWS V14.00,2013-04-06 14:28:00,
2013-04-06 07:33:00,39.5,29.8,29.85,SSW,200,2.0,6.0,68,0.00,,---,0.01,VWS V14.00,2013-04-06 14:33:00,
2013-04-06 07:38:00,39.5,30.2,29.85,SSW,198,2.0,7.0,69,0.00,,---,0.01,VWS V14.00,2013-04-06 14:38:00,
2013-04-06 07:43:00,39.6,30.6,29.85,South,188,5.0,10.0,70,0.00,,---,0.01,VWS V14.00,2013-04-06 14:43:00,
2013-04-06 07:49:00,39.6,30.3,29.86,SSW,202,7.0,13.0,69,0.00,,---,0.01,VWS V14.00,2013-04-06 14:49:00,
2013-04-06 07:54:00,39.8,30.5,29.86,SSW,200,2.0,8.0,69,0.00,,---,0.01,VWS V14.00,2013-04-06 14:54:00,
2013-04-06 07:59:00,39.8,30.5,29.86,SSW,200,2.0,8.0,69,0.00,,---,0.01,VWS V14.00,2013-04-06 14:59:00,
2013-04-06 08:04:00,39.6,31.3,29.86,SSW,200,2.0,6.0,72,0.00,,---,0.01,VWS V14.00,2013-04-06 15:04:00,
2013-04-06 08:10:00,39.8,30.8,29.86,SSW,198,0.0,7.0,70,0.00,,---,0.01,VWS V14.00,2013-04-06 15:10:00,
2013-04-06 08:15:00,39.9,31.3,29.86,SSW,199,5.0,5.0,71,0.00,,---,0.01,VWS V14.00,2013-04-06 15:15:00,
2013-04-06 08:20:00,40.2,31.2,29.86,SSW,198,2.0,5.0,70,0.00,,---,0.01,VWS V14.00,2013-04-06 15:20:00,
2013-04-06 08:25:00,40.2,31.2,29.86,SSW,198,0.0,2.0,70,0.00,,---,0.01,VWS V14.00,2013-04-06 15:25:00,
2013-04-06 08:30:00,40.5,31.5,29.86,SSW,193,6.0,8.0,70,0.00,,---,0.01,VWS V14.00,2013-04-06 15:30:00,
2013-04-06 08:35:00,40.5,31.1,29.86,SSE,168,8.0,10.0,69,0.00,,---,0.01,VWS V14.00,2013-04-06 15:35:00,
2013-04-06 08:41:00,40.8,31.4,29.86,South,181,7.0,10.0,69,0.00,,---,0.01,VWS V14.00,2013-04-06 15:41:00,
2013-04-06 08:46:00,41.3,31.2,29.86,South,191,5.0,13.0,67,0.00,,---,0.01,VWS V14.00,2013-04-06 15:46:00,
2013-04-06 08:51:00,41.6,31.5,29.86,SSW,193,8.0,8.0,67,0.00,,---,0.01,VWS V14.00,2013-04-06 15:51:00,
2013-04-06 08:56:00,41.5,31.7,29.86,SW,215,10.0,10.0,68,0.00,,---,0.01,VWS V14.00,2013-04-06 15:56:00,
2013-04-06 09:02:00,41.3,32.3,29.86,SSW,199,6.0,10.0,70,0.00,,---,0.01,VWS V14.00,2013-04-06 16:02:00,
2013-04-06 09:07:00,41.6,32.2,29.86,South,186,12.0,12.0,69,0.00,,---,0.01,VWS V14.00,2013-04-06 16:07:00,
2013-04-06 09:12:00,42.5,32.7,29.86,SSW,198,5.0,10.0,68,0.00,,---,0.01,VWS V14.00,2013-04-06 16:12:00,
2013-04-06 09:17:00,42.3,32.1,29.86,South,191,5.0,10.0,67,0.00,,---,0.01,VWS V14.00,2013-04-06 16:17:00,
2013-04-06 09:22:00,41.9,31.4,29.86,South,188,6.0,10.0,66,0.00,,---,0.01,VWS V14.00,2013-04-06 16:22:00,
2013-04-06 09:28:00,42.1,31.6,29.86,South,184,7.0,10.0,66,0.00,,---,0.01,VWS V14.00,2013-04-06 16:28:00,
2013-04-06 09:33:00,42.6,32.4,29.86,SSW,195,7.0,9.0,67,0.00,,---,0.01,VWS V14.00,2013-04-06 16:33:00,
2013-04-06 09:38:00,42.5,31.2,29.86,South,191,2.0,12.0,64,0.00,,---,0.01,VWS V14.00,2013-04-06 16:38:00,
2013-04-06 09:43:00,42.8,31.9,29.86,SSW,196,5.0,13.0,65,0.00,,---,0.01,VWS V14.00,2013-04-06 16:43:00,
2013-04-06 09:49:00,42.3,31.4,29.87,SSW,200,12.0,13.0,65,0.00,,---,0.01,VWS V14.00,2013-04-06 16:49:00,
2013-04-06 09:55:00,41.9,31.0,29.87,SW,216,6.0,13.0,65,0.00,,---,0.01,VWS V14.00,2013-04-06 16:55:00,
2013-04-06 10:00:00,41.9,31.4,29.88,South,175,3.0,22.0,66,0.00,,---,0.01,VWS V14.00,2013-04-06 17:00:00,
2013-04-06 10:06:00,41.3,30.8,29.88,SSE,168,10.0,14.0,66,0.00,,---,0.01,VWS V14.00,2013-04-06 17:06:00,
2013-04-06 10:11:00,41.2,31.5,29.88,South,186,7.0,14.0,68,0.00,,---,0.01,VWS V14.00,2013-04-06 17:11:00,
2013-04-06 10:16:00,41.8,33.1,29.88,SSW,192,6.0,12.0,71,0.00,,---,0.01,VWS V14.00,2013-04-06 17:16:00,
2013-04-06 10:21:00,41.8,32.8,29.88,South,189,4.0,13.0,70,0.00,,---,0.01,VWS V14.00,2013-04-06 17:21:00,
2013-04-06 10:26:00,41.9,32.1,29.88,South,185,5.0,7.0,68,0.00,,---,0.01,VWS V14.00,2013-04-06 17:26:00,
2013-04-06 10:32:00,42.5,32.7,29.89,NW,318,0.0,2.0,68,0.00,,---,0.01,VWS V14.00,2013-04-06 17:32:00,
2013-04-06 10:37:00,42.8,32.6,29.89,SSW,192,10.0,10.0,67,0.00,,---,0.01,VWS V14.00,2013-04-06 17:37:00,
2013-04-06 10:42:00,42.6,32.4,29.89,South,189,1.0,5.0,67,0.00,,---,0.01,VWS V14.00,2013-04-06 17:42:00,
2013-04-06 10:47:00,42.3,32.1,29.90,South,191,2.0,16.0,67,0.00,,---,0.01,VWS V14.00,2013-04-06 17:47:00,
2013-04-06 10:52:00,42.9,32.3,29.90,South,182,5.0,9.0,66,0.00,,---,0.01,VWS V14.00,2013-04-06 17:52:00,
2013-04-06 10:58:00,43.2,33.4,29.90,South,191,0.0,9.0,68,0.00,,---,0.01,VWS V14.00,2013-04-06 17:58:00,
2013-04-06 11:03:00,43.3,32.0,29.89,SSW,196,2.0,9.0,64,0.00,,---,0.01,VWS V14.00,2013-04-06 18:03:00,
2013-04-06 11:08:00,44.1,31.5,29.89,SSE,164,5.0,9.0,61,0.00,,---,0.01,VWS V14.00,2013-04-06 18:08:00,
2013-04-06 11:13:00,44.2,31.6,29.89,SSW,196,11.0,13.0,61,0.00,,---,0.01,VWS V14.00,2013-04-06 18:13:00,
2013-04-06 11:18:00,44.1,30.7,29.89,SSW,202,10.0,19.0,59,0.00,,---,0.01,VWS V14.00,2013-04-06 18:18:00,
2013-04-06 11:24:00,44.2,32.0,29.89,SSW,200,5.0,19.0,62,0.00,,---,0.01,VWS V14.00,2013-04-06 18:24:00,
2013-04-06 11:29:00,45.2,32.2,29.89,SSW,199,24.0,24.0,60,0.00,,---,0.01,VWS V14.00,2013-04-06 18:29:00,
2013-04-06 11:34:00,45.1,31.2,29.88,SSW,200,13.0,21.0,58,0.00,,---,0.01,VWS V14.00,2013-04-06 18:34:00,
2013-04-06 11:39:00,46.1,29.5,29.88,SSW,199,14.0,27.0,52,0.00,,---,0.01,VWS V14.00,2013-04-06 18:39:00,
2013-04-06 11:44:00,46.0,29.8,29.88,South,188,9.0,20.0,53,0.00,,---,0.01,VWS V14.00,2013-04-06 18:44:00,
2013-04-06 11:49:00,47.3,30.1,29.87,SW,217,20.0,20.0,51,0.00,,---,0.01,VWS V14.00,2013-04-06 18:49:00,
2013-04-06 11:54:00,46.5,27.9,29.87,SSW,192,17.0,27.0,48,0.00,,---,0.01,VWS V14.00,2013-04-06 18:54:00,
2013-04-06 12:00:00,46.5,27.4,29.87,SSW,209,17.0,28.0,47,0.00,,---,0.01,VWS V14.00,2013-04-06 19:00:00,
2013-04-06 12:05:00,46.8,29.6,29.87,SSW,212,10.0,27.0,51,0.00,,---,0.01,VWS V14.00,2013-04-06 19:05:00,
2013-04-06 12:10:00,47.0,29.8,29.87,South,181,18.0,27.0,51,0.00,,---,0.01,VWS V14.00,2013-04-06 19:10:00,
2013-04-06 12:15:00,47.3,30.1,29.87,South,185,6.0,13.0,51,0.00,,---,0.01,VWS V14.00,2013-04-06 19:15:00,
2013-04-06 12:21:00,46.2,28.1,29.87,SSW,198,12.0,24.0,49,0.00,,---,0.01,VWS V14.00,2013-04-06 19:21:00,
2013-04-06 12:26:00,46.1,29.0,29.87,South,185,13.0,27.0,51,0.00,,---,0.01,VWS V14.00,2013-04-06 19:26:00,
2013-04-06 12:31:00,45.4,29.3,29.88,South,185,7.0,17.0,53,0.00,,---,0.01,VWS V14.00,2013-04-06 19:31:00,
2013-04-06 12:36:00,46.4,30.7,29.88,South,189,14.0,20.0,54,0.00,,---,0.01,VWS V14.00,2013-04-06 19:36:00,
2013-04-06 12:41:00,46.0,30.3,29.88,SSW,213,13.0,13.0,54,0.00,,---,0.01,VWS V14.00,2013-04-06 19:41:00,
2013-04-06 12:47:00,45.2,30.5,29.89,SSW,205,19.0,22.0,56,0.00,,---,0.01,VWS V14.00,2013-04-06 19:47:00,
2013-04-06 12:52:00,45.7,33.0,29.89,SSW,202,13.0,14.0,61,0.00,,---,0.01,VWS V14.00,2013-04-06 19:52:00,
2013-04-06 12:57:00,46.4,30.7,29.89,South,175,11.0,17.0,54,0.00,,---,0.01,VWS V14.00,2013-04-06 19:57:00,
2013-04-06 13:02:00,46.7,31.9,29.88,SSW,192,12.0,12.0,56,0.00,,---,0.01,VWS V14.00,2013-04-06 20:02:00,
2013-04-06 13:07:00,47.6,31.8,29.88,South,178,13.0,21.0,54,0.00,,---,0.01,VWS V14.00,2013-04-06 20:07:00,
2013-04-06 13:13:00,47.0,30.3,29.88,South,191,16.0,30.0,52,0.00,,---,0.01,VWS V14.00,2013-04-06 20:13:00,
2013-04-06 13:18:00,47.0,30.8,29.88,SSW,202,16.0,30.0,53,0.00,,---,0.01,VWS V14.00,2013-04-06 20:18:00,
2013-04-06 13:23:00,46.4,29.8,29.88,SW,219,10.0,19.0,52,0.00,,---,0.01,VWS V14.00,2013-04-06 20:23:00,
2013-04-06 13:29:00,47.4,31.6,29.88,South,174,10.0,20.0,54,0.00,,---,0.01,VWS V14.00,2013-04-06 20:29:00,
2013-04-06 13:34:00,47.3,31.0,29.87,SSW,193,10.0,17.0,53,0.00,,---,0.01,VWS V14.00,2013-04-06 20:34:00,
2013-04-06 13:39:00,47.0,31.7,29.87,SSW,195,7.0,17.0,55,0.00,,---,0.01,VWS V14.00,2013-04-06 20:39:00,
2013-04-06 13:44:00,46.7,31.0,29.87,SSE,167,16.0,17.0,54,0.00,,---,0.01,VWS V14.00,2013-04-06 20:44:00,
2013-04-06 13:49:00,46.8,31.0,29.86,South,176,12.0,17.0,54,0.00,,---,0.01,VWS V14.00,2013-04-06 20:49:00,
2013-04-06 13:54:00,46.8,31.0,29.86,SSW,192,8.0,10.0,54,0.00,,---,0.01,VWS V14.00,2013-04-06 20:54:00,
2013-04-06 14:00:00,45.8,30.1,29.86,South,189,12.0,13.0,54,0.00,,---,0.01,VWS V14.00,2013-04-06 21:00:00,
2013-04-06 14:05:00,45.1,32.9,29.86,South,182,6.0,19.0,62,0.00,,---,0.01,VWS V14.00,2013-04-06 21:05:00,
2013-04-06 14:10:00,45.7,31.8,29.86,South,185,6.0,19.0,58,0.00,,---,0.01,VWS V14.00,2013-04-06 21:10:00,
2013-04-06 14:15:00,46.5,32.5,29.86,SSW,199,14.0,31.0,58,0.00,,---,0.01,VWS V14.00,2013-04-06 21:15:00,
2013-04-06 14:21:00,47.9,32.1,29.86,SSW,198,7.0,31.0,54,0.00,,---,0.01,VWS V14.00,2013-04-06 21:21:00,
2013-04-06 14:26:00,48.2,31.4,29.86,SSW,198,13.0,18.0,52,0.00,,---,0.01,VWS V14.00,2013-04-06 21:26:00,
2013-04-06 14:31:00,47.3,31.0,29.86,SSW,203,17.0,17.0,53,0.00,,---,0.01,VWS V14.00,2013-04-06 21:31:00,
2013-04-06 14:36:00,47.4,31.1,29.86,South,179,7.0,17.0,53,0.00,,---,0.01,VWS V14.00,2013-04-06 21:36:00,
2013-04-06 14:41:00,47.3,29.6,29.86,SSW,212,13.0,13.0,50,0.00,,---,0.01,VWS V14.00,2013-04-06 21:41:00,
2013-04-06 14:46:00,48.5,30.7,29.86,WNW,288,6.0,14.0,50,0.00,,---,0.01,VWS V14.00,2013-04-06 21:46:00,
2013-04-06 14:51:00,48.8,30.0,29.86,North,359,1.0,18.0,48,0.00,,---,0.01,VWS V14.00,2013-04-06 21:51:00,
2013-04-06 14:57:00,47.6,28.9,29.86,South,176,13.0,28.0,48,0.00,,---,0.01,VWS V14.00,2013-04-06 21:57:00,
2013-04-06 15:02:00,47.7,29.0,29.86,South,169,21.0,21.0,48,0.00,,---,0.01,VWS V14.00,2013-04-06 22:02:00,
2013-04-06 15:07:00,47.3,28.1,29.86,SW,233,2.0,21.0,47,0.00,,---,0.01,VWS V14.00,2013-04-06 22:07:00,
2013-04-06 15:12:00,46.8,27.6,29.86,South,188,17.0,19.0,47,0.00,,---,0.01,VWS V14.00,2013-04-06 22:12:00,
2013-04-06 15:17:00,46.8,27.6,29.84,South,179,12.0,22.0,47,0.00,,---,0.01,VWS V14.00,2013-04-06 22:17:00,
2013-04-06 15:22:00,48.2,27.3,29.84,South,191,12.0,12.0,44,0.00,,---,0.01,VWS V14.00,2013-04-06 22:22:00,
2013-04-06 15:28:00,48.8,27.9,29.84,SSW,205,8.0,26.0,44,0.00,,---,0.01,VWS V14.00,2013-04-06 22:28:00,
2013-04-06 15:33:00,49.6,28.6,29.83,WNW,298,10.0,10.0,44,0.00,,---,0.01,VWS V14.00,2013-04-06 22:33:00,
2013-04-06 15:38:00,49.6,28.6,29.83,SSW,193,9.0,10.0,44,0.00,,---,0.01,VWS V14.00,2013-04-06 22:38:00,
2013-04-06 15:43:00,48.6,27.7,29.83,SSW,208,5.0,20.0,44,0.00,,---,0.01,VWS V14.00,2013-04-06 22:43:00,
2013-04-06 15:48:00,47.3,26.5,29.84,South,181,8.0,20.0,44,0.00,,---,0.01,VWS V14.00,2013-04-06 22:48:00,
2013-04-06 15:53:00,47.0,28.9,29.84,SSE,165,6.0,12.0,49,0.00,,---,0.01,VWS V14.00,2013-04-06 22:53:00,
2013-04-06 15:58:00,47.1,29.4,29.84,SW,216,0.0,12.0,50,0.00,,---,0.01,VWS V14.00,2013-04-06 22:58:00,
2013-04-06 16:03:00,47.4,29.7,29.84,WNW,298,4.0,6.0,50,0.00,,---,0.01,VWS V14.00,2013-04-06 23:03:00,
2013-04-06 16:09:00,47.3,31.0,29.84,WNW,288,6.0,13.0,53,0.00,,---,0.01,VWS V14.00,2013-04-06 23:09:00,
2013-04-06 16:14:00,46.7,30.5,29.84,South,189,6.0,7.0,53,0.00,,---,0.01,VWS V14.00,2013-04-06 23:14:00,
2013-04-06 16:20:00,46.5,30.8,29.85,West,280,7.0,10.0,54,0.00,,---,0.01,VWS V14.00,2013-04-06 23:20:00,
2013-04-06 16:25:00,47.0,30.8,29.85,NW,325,2.0,7.0,53,0.00,,---,0.01,VWS V14.00,2013-04-06 23:25:00,
2013-04-06 16:30:00,47.0,31.2,29.85,South,176,7.0,7.0,54,0.00,,---,0.01,VWS V14.00,2013-04-06 23:30:00,
2013-04-06 16:35:00,46.1,30.4,29.85,SSW,195,3.0,7.0,54,0.00,,---,0.01,VWS V14.00,2013-04-06 23:35:00,
2013-04-06 16:40:00,45.5,30.3,29.85,South,186,5.0,12.0,55,0.00,,---,0.01,VWS V14.00,2013-04-06 23:40:00,
2013-04-06 16:45:00,45.2,30.0,29.85,South,191,8.0,17.0,55,0.00,,---,0.01,VWS V14.00,2013-04-06 23:45:00,
2013-04-06 16:51:00,45.2,29.6,29.85,SSW,198,7.0,17.0,54,0.00,,---,0.01,VWS V14.00,2013-04-06 23:51:00,
2013-04-06 16:56:00,44.9,30.2,29.85,South,191,7.0,12.0,56,0.00,,---,0.01,VWS V14.00,2013-04-06 23:56:00,
2013-04-06 17:01:00,44.3,28.7,29.86,SSW,212,8.0,13.0,54,0.00,,---,0.01,VWS V14.00,2013-04-07 00:01:00,
2013-04-06 17:07:00,43.9,29.2,29.86,SSW,203,4.0,13.0,56,0.00,,---,0.01,VWS V14.00,2013-04-07 00:07:00,
2013-04-06 17:12:00,43.6,30.2,29.86,SSW,192,11.0,12.0,59,0.00,,---,0.01,VWS V14.00,2013-04-07 00:12:00,
2013-04-06 17:17:00,43.1,30.2,29.86,South,186,12.0,14.0,60,0.00,,---,0.01,VWS V14.00,2013-04-07 00:17:00,
2013-04-06 17:22:00,42.2,30.9,29.86,SSW,202,7.0,15.0,64,0.00,,---,0.01,VWS V14.00,2013-04-07 00:22:00,
2013-04-06 17:27:00,41.8,31.3,29.86,SSW,192,16.0,24.0,66,0.00,,---,0.01,VWS V14.00,2013-04-07 00:27:00,
2013-04-06 17:33:00,41.2,31.5,29.86,SSW,212,10.0,18.0,68,0.00,,---,0.01,VWS V14.00,2013-04-07 00:33:00,
2013-04-06 17:38:00,40.3,31.3,29.86,SW,215,9.0,18.0,70,0.00,,---,0.01,VWS V14.00,2013-04-07 00:38:00,
2013-04-06 17:43:00,40.1,31.1,29.86,SSW,199,13.0,13.0,70,0.00,,---,0.01,VWS V14.00,2013-04-07 00:43:00,
2013-04-06 17:48:00,39.9,32.6,29.87,South,184,5.0,13.0,75,0.00,,---,0.01,VWS V14.00,2013-04-07 00:48:00,
2013-04-06 17:53:00,39.6,32.3,29.87,SSW,208,7.0,14.0,75,0.00,,---,0.01,VWS V14.00,2013-04-07 00:53:00,
2013-04-06 17:58:00,39.5,32.2,29.87,South,185,8.0,17.0,75,0.00,,---,0.02,VWS V14.00,2013-04-07 00:58:00,
2013-04-06 18:03:00,39.3,31.7,29.87,SSW,192,14.0,14.0,74,0.00,,---,0.02,VWS V14.00,2013-04-07 01:03:00,
2013-04-06 18:09:00,39.3,32.4,29.87,SSW,192,6.0,14.0,76,0.00,,---,0.02,VWS V14.00,2013-04-07 01:09:00,
2013-04-06 18:15:00,39.5,31.9,29.86,South,191,6.0,14.0,74,0.00,,---,0.02,VWS V14.00,2013-04-07 01:15:00,
2013-04-06 18:20:00,39.6,31.7,29.86,South,175,10.0,17.0,73,0.00,,---,0.02,VWS V14.00,2013-04-07 01:20:00,
2013-04-06 18:25:00,39.6,32.3,29.86,South,189,5.0,9.0,75,0.00,,---,0.02,VWS V14.00,2013-04-07 01:25:00,
2013-04-06 18:30:00,39.5,32.2,29.86,SSW,193,6.0,14.0,75,0.00,,---,0.02,VWS V14.00,2013-04-07 01:30:00,
2013-04-06 18:35:00,39.5,31.6,29.86,SW,216,7.0,7.0,73,0.00,,---,0.02,VWS V14.00,2013-04-07 01:35:00,
2013-04-06 18:41:00,39.6,32.0,29.86,South,182,8.0,11.0,74,0.00,,---,0.02,VWS V14.00,2013-04-07 01:41:00,
2013-04-06 18:46:00,39.6,31.7,29.85,South,185,5.0,11.0,73,0.00,,---,0.02,VWS V14.00,2013-04-07 01:46:00,
2013-04-06 18:51:00,39.6,32.0,29.85,SSW,193,7.0,11.0,74,0.00,,---,0.02,VWS V14.00,2013-04-07 01:51:00,
2013-04-06 18:56:00,39.8,32.2,29.85,SSW,193,12.0,12.0,74,0.00,,---,0.02,VWS V14.00,2013-04-07 01:56:00,
2013-04-06 19:02:00,39.6,32.0,29.84,South,186,7.0,8.0,74,0.00,,---,0.02,VWS V14.00,2013-04-07 02:02:00,
2013-04-06 19:07:00,39.6,32.0,29.84,SSW,192,8.0,11.0,74,0.00,,---,0.02,VWS V14.00,2013-04-07 02:07:00,
2013-04-06 19:13:00,39.8,32.2,29.84,South,184,6.0,10.0,74,0.00,,---,0.02,VWS V14.00,2013-04-07 02:13:00,
2013-04-06 19:18:00,39.8,32.2,29.84,South,188,1.0,12.0,74,0.00,,---,0.02,VWS V14.00,2013-04-07 02:18:00,
2013-04-06 19:22:00,39.9,32.3,29.84,South,184,5.0,6.0,74,0.00,,---,0.02,VWS V14.00,2013-04-07 02:22:00,
2013-04-06 19:28:00,39.9,32.3,29.84,South,186,7.0,12.0,74,0.00,,---,0.02,VWS V14.00,2013-04-07 02:28:00,
2013-04-06 19:33:00,39.8,32.5,29.83,South,176,8.0,11.0,75,0.00,,---,0.02,VWS V14.00,2013-04-07 02:33:00,
2013-04-06 19:38:00,39.6,32.7,29.83,SSW,192,9.0,14.0,76,0.00,,---,0.02,VWS V14.00,2013-04-07 02:38:00,
2013-04-06 19:43:00,39.5,32.2,29.83,SSW,195,5.0,17.0,75,0.00,,---,0.02,VWS V14.00,2013-04-07 02:43:00,
2013-04-06 19:48:00,39.3,31.7,29.83,South,186,8.0,17.0,74,0.00,,---,0.02,VWS V14.00,2013-04-07 02:48:00,
2013-04-06 19:53:00,39.3,32.0,29.83,South,179,10.0,12.0,75,0.00,,---,0.02,VWS V14.00,2013-04-07 02:53:00,
2013-04-06 19:59:00,39.2,31.3,29.83,SW,217,7.0,12.0,73,0.00,,---,0.02,VWS V14.00,2013-04-07 02:59:00,
2013-04-06 20:04:00,39.2,32.0,29.84,South,191,13.0,17.0,75,0.00,,---,0.02,VWS V14.00,2013-04-07 03:04:00,
2013-04-06 20:09:00,39.2,31.3,29.84,SW,222,13.0,17.0,73,0.00,,---,0.02,VWS V14.00,2013-04-07 03:09:00,
2013-04-06 20:14:00,38.9,31.7,29.84,South,181,10.0,13.0,75,0.00,,---,0.02,VWS V14.00,2013-04-07 03:14:00,
2013-04-06 20:19:00,38.5,31.6,29.82,SSW,198,11.0,19.0,76,0.00,,---,0.02,VWS V14.00,2013-04-07 03:19:00,
2013-04-06 20:25:00,38.3,31.1,29.82,South,189,8.0,18.0,75,0.00,,---,0.02,VWS V14.00,2013-04-07 03:25:00,
2013-04-06 20:30:00,38.0,31.4,29.83,SSW,203,11.0,18.0,77,0.00,,---,0.03,VWS V14.00,2013-04-07 03:30:00,
2013-04-06 20:35:00,37.6,31.1,29.83,SSW,195,6.0,12.0,77,0.00,,---,0.03,VWS V14.00,2013-04-07 03:35:00,
2013-04-06 20:40:00,37.5,31.0,29.83,SSW,208,6.0,12.0,77,0.00,,---,0.03,VWS V14.00,2013-04-07 03:40:00,
2013-04-06 20:45:00,37.3,31.1,29.81,SSW,193,8.0,10.0,78,0.00,,---,0.03,VWS V14.00,2013-04-07 03:45:00,
2013-04-06 20:51:00,37.3,31.4,29.81,South,181,3.0,14.0,79,0.00,,---,0.03,VWS V14.00,2013-04-07 03:51:00,
2013-04-06 20:56:00,37.3,31.4,29.81,South,189,5.0,12.0,79,0.00,,---,0.03,VWS V14.00,2013-04-07 03:56:00,
2013-04-06 21:00:00,37.2,31.0,29.81,SSW,192,3.0,12.0,78,0.00,,---,0.03,VWS V14.00,2013-04-07 04:00:00,
2013-04-06 21:01:00,37.2,31.0,29.81,SSW,192,3.0,12.0,78,0.00,,---,0.03,VWS V14.00,2013-04-07 04:01:00,
2013-04-06 21:02:00,37.2,31.3,29.81,South,189,7.0,9.0,79,0.00,,---,0.03,VWS V14.00,2013-04-07 04:02:00,
2013-04-06 21:08:00,37.3,31.1,29.81,SSW,192,5.0,9.0,78,0.00,,---,0.03,VWS V14.00,2013-04-07 04:08:00,
2013-04-06 21:13:00,37.3,31.1,29.81,SSW,195,5.0,7.0,78,0.00,,---,0.03,VWS V14.00,2013-04-07 04:13:00,
2013-04-06 21:18:00,37.5,31.6,29.80,SSW,192,10.0,12.0,79,0.00,,---,0.04,VWS V14.00,2013-04-07 04:18:00,
2013-04-06 21:24:00,37.3,31.7,29.80,SSW,199,4.0,10.0,80,0.00,,---,0.04,VWS V14.00,2013-04-07 04:24:00,
2013-04-06 21:29:00,37.3,31.4,29.80,SSW,205,3.0,10.0,79,0.00,,---,0.04,VWS V14.00,2013-04-07 04:29:00,
2013-04-06 21:34:00,37.3,31.4,29.80,SSW,198,6.0,10.0,79,0.04,,---,0.05,VWS V14.00,2013-04-07 04:34:00,
2013-04-06 21:40:00,37.5,31.3,29.80,South,191,8.0,12.0,78,0.04,,---,0.05,VWS V14.00,2013-04-07 04:40:00,
2013-04-06 21:45:00,37.6,32.0,29.78,SSW,192,3.0,11.0,80,0.04,,---,0.05,VWS V14.00,2013-04-07 04:45:00,
2013-04-06 21:50:00,37.6,31.7,29.78,South,189,5.0,11.0,79,0.00,,---,0.05,VWS V14.00,2013-04-07 04:50:00,
2013-04-06 21:55:00,37.8,31.6,29.78,SSW,193,10.0,12.0,78,0.00,,---,0.05,VWS V14.00,2013-04-07 04:55:00,
2013-04-06 22:00:00,37.9,31.4,29.77,South,191,5.0,12.0,77,0.00,,---,0.05,VWS V14.00,2013-04-07 05:00:00,
2013-04-06 22:06:00,37.9,31.4,29.77,South,189,10.0,11.0,77,0.00,,---,0.05,VWS V14.00,2013-04-07 05:06:00,
2013-04-06 22:11:00,37.9,32.0,29.77,South,178,9.0,11.0,79,0.00,,---,0.05,VWS V14.00,2013-04-07 05:11:00,
2013-04-06 22:16:00,37.9,31.7,29.76,SSW,193,6.0,10.0,78,0.00,,---,0.05,VWS V14.00,2013-04-07 05:16:00,
2013-04-06 22:21:00,37.9,31.7,29.76,SSW,196,7.0,7.0,78,0.00,,---,0.05,VWS V14.00,2013-04-07 05:21:00,
2013-04-06 22:26:00,38.0,31.8,29.76,South,189,6.0,10.0,78,0.00,,---,0.05,VWS V14.00,2013-04-07 05:26:00,
2013-04-06 22:31:00,38.0,31.8,29.76,South,181,7.0,7.0,78,0.00,,---,0.05,VWS V14.00,2013-04-07 05:31:00,
2013-04-06 22:37:00,38.0,31.8,29.76,SSW,192,7.0,10.0,78,0.00,,---,0.05,VWS V14.00,2013-04-07 05:37:00,
2013-04-06 22:42:00,38.2,32.3,29.76,South,178,7.0,10.0,79,0.00,,---,0.05,VWS V14.00,2013-04-07 05:42:00,
2013-04-06 22:47:00,38.3,32.0,29.75,South,176,3.0,12.0,78,0.00,,---,0.05,VWS V14.00,2013-04-07 05:47:00,
2013-04-06 22:52:00,38.5,31.9,29.75,SSW,193,5.0,13.0,77,0.00,,---,0.05,VWS V14.00,2013-04-07 05:52:00,
2013-04-06 22:57:00,38.5,31.9,29.75,SSW,198,12.0,21.0,77,0.00,,---,0.05,VWS V14.00,2013-04-07 05:57:00,
2013-04-06 23:02:00,38.3,32.0,29.73,SSW,213,7.0,9.0,78,0.00,,---,0.05,VWS V14.00,2013-04-07 06:02:00,
2013-04-06 23:08:00,38.3,32.0,29.73,SSW,209,10.0,13.0,78,0.00,,---,0.06,VWS V14.00,2013-04-07 06:08:00,
2013-04-06 23:13:00,38.2,32.3,29.73,South,189,10.0,10.0,79,0.00,,---,0.06,VWS V14.00,2013-04-07 06:13:00,
2013-04-06 23:18:00,38.0,31.8,29.71,SSE,165,10.0,21.0,78,0.04,,---,0.07,VWS V14.00,2013-04-07 06:18:00,
2013-04-06 23:23:00,37.9,32.0,29.71,South,191,8.0,14.0,79,0.04,,---,0.07,VWS V14.00,2013-04-07 06:23:00,
2013-04-06 23:28:00,37.8,31.6,29.71,SSW,193,6.0,14.0,78,0.04,,---,0.07,VWS V14.00,2013-04-07 06:28:00,
2013-04-06 23:33:00,37.5,31.9,29.69,South,176,7.0,11.0,80,0.04,,---,0.07,VWS V14.00,2013-04-07 06:33:00,
2013-04-06 23:39:00,37.5,31.6,29.69,South,184,7.0,25.0,79,0.00,,---,0.07,VWS V14.00,2013-04-07 06:39:00,
2013-04-06 23:44:00,37.5,31.9,29.69,South,186,7.0,18.0,80,0.00,,---,0.07,VWS V14.00,2013-04-07 06:44:00,
2013-04-06 23:50:00,37.5,31.9,29.68,South,188,10.0,18.0,80,0.00,,---,0.07,VWS V14.00,2013-04-07 06:50:00,
2013-04-06 23:55:00,37.8,32.5,29.68,SW,216,14.0,24.0,81,0.00,,---,0.07,VWS V14.00,2013-04-07 06:55:00,